#datint,netname,site,siteID,timestamp,IntT,BattV,AirT2,AirT,AirT_Avg,AirT_Max,AirT_Min,RH_Avg,RH_Max,RH_Min,EA_Avg,Td_Avg,Td_Max,Td_Min,WindS_Smp,WindS_Avg,WindD_Avg,WindD_SD,WindS_Max,ETo,ETr,SoilT4,SoilT8,SoilVWC8,SolarW_Avg,wetstate_Avg,wetT_Avg,Precip_accum,Precip_WPG,Precip_TB
15min,AgWx,beryljct,423,08MAY2018:01:00:00,52.6,13.01,52.4,47.9,52.4,55.0,47.9,34,55,25,0.621,24.0,32.5,20.0,4.538,3.2,218,25,4.5,0.00012,0.00020,60.8,60.7,16,0,0,49.6,13.79,0.00,0.00
15min,AgWx,beryljct,423,08MAY2018:01:15:00,51.8,13.01,52.7,49.0,52.3,58.9,47.6,38,55,21,0.547,26.4,33.7,18.6,2.828,3.2,292,9.5,5.4,0.00011,0.00019,60.5,60.7,16,0,0,50.0,13.79,0.00,0.00
15min,AgWx,beryljct,423,08MAY2018:01:30:00,50.9,13,48.2,48.1,48.1,48.8,47.4,49,54,42,0.561,29.7,31.5,26.5,5.217,2.4,306,5.2,5.2,-0.00003,-0.00001,60.2,60.3,16,0,0,46.1,13.79,0.00,0.00
15min,AgWx,beryljct,423,08MAY2018:01:45:00,50.4,12.99,52.0,49.1,51.6,54.1,48.1,39,51,30,0.560,27.1,30.9,22.2,3.179,3.6,302,5.6,5.3,0.00014,0.00022,60.0,60.5,16,0,0,49.6,13.79,0.00,0.00
15min,AgWx,beryljct,423,08MAY2018:02:00:00,49.8,12.98,52.5,56.9,51.4,56.9,48.8,39,49,22,0.347,26.4,31.1,18.4,1.951,2.5,295,4.6,3.4,0.00002,0.00007,59.7,60.5,16,0,0,48.5,13.80,0.00,0.00
15min,AgWx,beryljct,423,08MAY2018:02:15:00,49.4,12.96,57.2,53.8,57.1,59.1,53.5,24,39,20,0.535,20.6,30.0,17.7,1.469,2.1,289,0.6,2.6,0.00001,0.00007,59.5,60.4,16,0,0,52.4,13.80,0.00,0.00
15min,AgWx,beryljct,423,08MAY2018:02:30:00,48.8,12.95,49.6,55.8,49.4,55.8,46.1,46,59,22,0.339,28.7,32.5,17.9,0,1.1,289,0.1,2.3,-0.00018,-0.00023,59.2,60.0,16,0,0,47.1,13.80,0.00,0.00
15min,AgWx,beryljct,423,08MAY2018:02:45:00,48.6,12.95,51.4,47.4,52.0,56.7,47.4,37,55,22,0.557,25.9,32.3,17.8,4.538,3.1,39,73,7.1,0.00009,0.00016,59.0,60.2,16,0,0,47.9,13.80,0.00,0.00
15min,AgWx,beryljct,423,08MAY2018:03:00:00,47.9,12.94,44.1,43.9,44.3,48.4,42.3,58,64,44,0.521,30.3,32.8,27.0,2.609,3.6,164,41,6.1,0.00002,0.00006,58.7,60.1,16,0,0,43.1,13.80,0.00,0.00
15min,AgWx,beryljct,423,08MAY2018:03:15:00,46.9,12.93,44.7,43.8,44.4,45.2,43.8,51,55,46,0.535,27.4,28.8,25.4,1.03,1.4,187,1.0,2.9,-0.00013,-0.00016,58.5,60.0,16,0,0,41.1,13.80,0.00,0.00
15min,AgWx,beryljct,423,08MAY2018:03:30:00,45.9,12.93,42.8,42.8,42.6,44.1,40.7,61,72,51,0.572,30.0,32.4,26.6,0.044,0.6,149,37,3.1,-0.00023,-0.00034,58.3,59.9,16,0,0,40.1,13.80,0.00,0.00
15min,AgWx,beryljct,423,08MAY2018:03:45:00,45.3,12.92,45.5,43.1,45.1,47.9,42.9,50,61,39,0.560,27.4,30.6,24.1,3.157,1.1,191,66,3.6,-0.00018,-0.00024,58.0,59.8,16,0,0,41.1,13.81,0.00,0.00
15min,AgWx,beryljct,423,08MAY2018:04:00:00,44.4,12.92,39.3,39.3,39.4,42.9,37.6,69,78,60,0.542,29.9,31.4,27.6,0.417,2.1,132,11,4.6,-0.00010,-0.00011,57.8,59.7,16,0,0,38.5,13.81,0.00,0.00
15min,AgWx,beryljct,423,08MAY2018:04:15:00,43.4,12.91,39.4,39.2,39.0,40.0,38.0,69,76,61,0.563,29.6,31.0,27.3,0.811,1.3,289,53,3.6,-0.00016,-0.00021,57.5,59.6,16,0,0,36.9,13.81,0.00,0.00
15min,AgWx,beryljct,423,08MAY2018:04:30:00,42.4,12.91,39.1,38.9,38.7,39.5,38.0,70,74,66,0.562,29.8,30.8,29.1,1.425,2.2,114,28,5.3,-0.00010,-0.00012,57.3,59.5,16,0,0,37.0,13.81,0.00,0.00
15min,AgWx,beryljct,423,08MAY2018:04:45:00,41.6,12.9,39.2,38.7,38.8,39.5,38.2,71,74,69,0.575,30.4,31.0,29.9,2.587,2.2,162,31,5.1,-0.00010,-0.00012,57.0,59.4,16,0,0,37.1,13.81,0.00,0.00
15min,AgWx,beryljct,423,08MAY2018:05:00:00,41.3,12.89,39.4,39.9,38.9,40.0,38.3,69,73,65,0.543,29.4,30.5,28.6,3.902,3.8,198,5.2,4.7,-0.00002,-0.00000,56.8,59.3,16,0,0,37.5,13.81,0.00,0.00
15min,AgWx,beryljct,423,08MAY2018:05:15:00,41.0,12.89,40.6,40.0,40.2,41.1,38.9,64,70,61,0.540,29.1,29.8,28.6,3.288,3.2,194,6.7,4.1,-0.00003,-0.00002,56.6,59.2,16,0,0,38.3,13.81,0.00,0.00
15min,AgWx,beryljct,423,08MAY2018:05:30:00,40.8,12.89,40.8,41.2,40.2,41.6,38.9,63,69,58,0.518,28.8,29.5,27.8,3.354,3.3,191,5.2,4.1,-0.00002,0.00000,56.4,59.1,16,0,0,38.6,13.81,0.00,0.00
15min,AgWx,beryljct,423,08MAY2018:05:45:00,40.5,12.87,39.0,37.6,39.0,41.2,37.4,62,67,58,0.507,27.2,28.1,26.7,2.806,3.3,181,0.6,4.0,0.00024,0.00042,56.1,59.0,16,0,0,38.1,13.81,0.00,0.00
15min,AgWx,beryljct,423,08MAY2018:06:00:00,39.9,12.86,36.7,36.6,36.4,37.5,35.6,70,73,67,0.511,27.6,28.2,27.1,2.762,2.0,181,0.6,2.9,0.00012,0.00020,55.9,58.9,16,0,0,35.7,13.81,0.00,0.00
15min,AgWx,beryljct,423,08MAY2018:06:15:00,39.5,12.87,39.2,39.6,38.4,40.3,36.7,65,71,59,0.510,27.7,28.6,27.0,3.902,1.9,214,37,4.1,0.00014,0.00024,55.7,58.8,16,0,0,36.8,13.81,0.00,0.00
15min,AgWx,beryljct,423,08MAY2018:06:30:00,39.3,12.87,38.0,35.3,38.0,40.6,35.3,62,70,51,0.483,26.0,27.7,23.6,1.622,2.5,337,26,4.2,0.00020,0.00034,55.4,58.7,16,2,0,37.6,13.81,0.00,0.00
15min,AgWx,beryljct,423,08MAY2018:06:45:00,38.8,12.86,36.6,37.9,35.9,37.9,34.4,67,70,65,0.507,26.1,27.5,24.9,0,1.8,40,8.8,3.4,0.00018,0.00027,55.2,58.6,16,15,0,36.7,13.81,0.00,0.00
15min,AgWx,beryljct,423,08MAY2018:07:00:00,38.8,12.89,37.2,37.9,36.8,37.9,35.7,65,69,60,0.491,26.2,27.4,24.9,0.899,0.1,38,0.0,1.1,0.00024,0.00026,55.0,58.4,16,47,0,42.9,13.81,0.00,0.00
15min,AgWx,beryljct,423,08MAY2018:07:15:00,39.3,12.89,38.2,38.7,37.8,38.7,36.8,71,76,62,0.576,29.3,30.7,26.4,1.25,1.3,147,42,3.2,0.00043,0.00050,54.8,58.0,16,85,0,50.6,13.81,0.00,0.00
15min,AgWx,beryljct,423,08MAY2018:07:30:00,40.7,12.88,40.4,41.8,39.8,41.8,38.5,72,75,66,0.609,31.6,32.9,30.0,0.592,0.6,166,0.1,1.4,0.00057,0.00063,54.6,58.2,16,126,0,58.6,13.81,0.00,0.00
15min,AgWx,beryljct,423,08MAY2018:07:45:00,42.9,12.91,44.0,44.0,43.5,44.7,41.8,63,69,59,0.626,31.6,34.2,30.6,0.329,0.4,166,0.4,1.0,0.00080,0.00087,54.4,58.1,16,172,0,67.7,13.80,0.00,0.00
15min,AgWx,beryljct,423,08MAY2018:08:00:00,45.4,12.91,44.9,45.0,44.6,45.0,44.0,66,71,54,0.579,33.8,35.8,29.3,2.828,1.3,144,21,3.2,0.00107,0.00121,54.2,58.0,16,224,0,70.2,13.80,0.00,0.00
15min,AgWx,beryljct,423,08MAY2018:08:15:00,47.7,12.94,46.6,47.0,46.2,47.0,45.0,62,65,57,0.643,33.7,35.6,30.5,1.973,2.2,118,9.8,3.2,0.00138,0.00160,54.1,57.9,16,275,0,72.9,13.80,0.00,0.00
15min,AgWx,beryljct,423,08MAY2018:08:30:00,50.1,12.96,48.8,50.0,48.4,50.0,47.1,56,65,49,0.711,33.5,36.7,30.6,1.337,1.5,137,0.9,2.0,0.00167,0.00189,54.0,57.7,16,328,0,80.0,13.80,0.00,0.00
15min,AgWx,beryljct,423,08MAY2018:08:45:00,52.7,13.09,51.7,52.8,51.3,52.8,49.8,51,57,44,0.662,33.8,36.6,29.9,0.789,0.8,136,0.1,1.9,0.00200,0.00220,53.9,57.6,16,382,0,86.1,13.80,0.00,0.00
15min,AgWx,beryljct,423,08MAY2018:09:00:00,55.6,13.26,54.4,55.6,54.0,55.6,52.7,47,51,44,0.667,34.5,37.2,31.8,0,0.4,126,8.2,1.1,0.00235,0.00254,53.9,57.5,16,435,0,92.4,13.80,0.00,0.00
15min,AgWx,beryljct,423,08MAY2018:09:15:00,58.5,13.56,57.2,57.9,56.9,58.0,55.6,40,50,35,0.611,32.9,38.0,29.9,0.745,0.2,117,0.0,1.2,0.00271,0.00291,53.9,57.4,16,487,0,97.5,13.79,0.00,0.00
15min,AgWx,beryljct,423,08MAY2018:09:30:00,61.5,14.06,60.0,61.4,59.7,61.4,57.9,33,43,28,0.636,30.7,36.2,27.6,0,0.4,116,2.6,1.6,0.00310,0.00336,53.9,57.3,15,537,0,100.2,13.79,0.00,0.00
15min,AgWx,beryljct,423,08MAY2018:09:45:00,64.4,14.24,62.2,62.9,62.1,62.9,61.3,30,34,27,0.613,30.6,33.7,27.6,0.263,1.0,347,39,3.2,0.00356,0.00394,54.0,57.2,15,588,0,101.0,13.78,0.00,0.00
15min,AgWx,beryljct,423,08MAY2018:10:00:00,66.9,14.23,64.4,65.2,64.2,65.2,62.9,25,31,22,0.482,28.0,33.6,24.3,4.516,2.4,337,14,4.6,0.00409,0.00472,54.1,57.1,15,636,0,98.9,13.78,0.00,0.00
15min,AgWx,beryljct,423,08MAY2018:10:15:00,68.6,14.2,66.0,66.6,66.0,66.7,65.0,24,32,21,0.462,27.5,35.6,25.0,3.398,5.1,11,15,7.8,0.00475,0.00582,54.2,57.0,15,684,0,91.9,13.77,0.00,0.00
15min,AgWx,beryljct,423,08MAY2018:10:30:00,70.0,14.12,67.2,67.5,67.2,68.0,66.4,25,31,21,0.559,30.0,35.4,26.2,3.223,4.8,36,25,9.2,0.00505,0.00610,54.4,56.9,15,730,0,94.5,13.77,0.00,0.00
15min,AgWx,beryljct,423,08MAY2018:10:45:00,71.0,14.12,68.1,68.5,68.1,68.7,67.4,28,35,23,0.647,33.6,39.5,29.5,7.278,6.4,52,20,9.6,0.00544,0.00667,54.6,56.8,15,772,0,93.8,13.77,0.00,0.00
15min,AgWx,beryljct,423,08MAY2018:11:00:00,72.0,14.04,69.5,70.2,69.5,70.3,68.5,26,35,21,0.641,32.6,40.9,27.4,6.138,5.4,54,26,10.2,0.00571,0.00689,54.8,56.8,15,811,0,96.4,13.77,0.00,0.00
15min,AgWx,beryljct,423,08MAY2018:11:15:00,73.2,14.03,70.5,71.2,70.5,71.2,69.7,26,32,22,0.706,33.7,39.6,29.5,5.393,5.1,63,13,9.4,0.00597,0.00714,55.1,56.8,15,848,0,99.7,13.76,0.00,0.00
15min,AgWx,beryljct,423,08MAY2018:11:30:00,74.3,14.03,71.8,72.5,71.8,72.7,70.9,24,33,18,0.657,33.4,42.0,26.7,6.029,5.1,41,18,8.9,0.00626,0.00748,55.4,56.7,15,881,0,100.3,13.76,0.00,0.00
15min,AgWx,beryljct,423,08MAY2018:11:45:00,75.5,14,72.5,72.8,72.6,73.1,72.2,25,31,21,0.754,34.9,40.4,30.2,5.415,5.1,64,14,9.8,0.00649,0.00772,55.8,56.7,15,911,0,102.4,13.76,0.00,0.00
15min,AgWx,beryljct,423,08MAY2018:12:00:00,76.4,13.59,73.9,74.4,73.9,75.2,72.9,22,30,16,0.658,32.8,40.2,25.1,4.45,5.3,38,35,9.3,0.00678,0.00810,56.2,56.7,15,937,0,101.7,13.76,0.00,0.00
15min,AgWx,beryljct,423,08MAY2018:12:15:00,77.4,13.66,74.7,75.1,74.9,76.2,73.9,23,29,17,0.738,34.0,41.0,26.6,3.661,4.6,47,39,9.7,0.00690,0.00814,56.6,56.8,15,960,0,103.2,13.75,0.00,0.00
15min,AgWx,beryljct,423,08MAY2018:12:30:00,78.4,13.53,75.4,75.8,75.5,76.0,75.0,23,30,17,0.720,34.4,41.9,27.2,4.143,4.4,39,28,10.9,0.00704,0.00827,57.1,56.8,15,979,0,105.9,13.76,0.00,0.00
15min,AgWx,beryljct,423,08MAY2018:12:45:00,79.3,13.59,75.7,75.8,75.9,76.3,75.3,24,30,20,0.644,36.8,42.4,31.9,1.688,3.8,91,36,9.7,0.00709,0.00821,57.6,56.9,15,995,0,107.8,13.75,0.00,0.00
15min,AgWx,beryljct,423,08MAY2018:13:00:00,80.1,13.52,76.4,76.8,76.5,77.4,75.8,23,32,17,0.772,36.1,44.2,29.0,0.877,2.8,70,29,5.2,0.00710,0.00807,58.2,57.0,15,1007,0,111.9,13.75,0.00,0.00
15min,AgWx,beryljct,423,08MAY2018:13:15:00,80.9,13.47,76.7,77.3,76.9,77.3,76.5,23,32,18,0.686,36.7,44.7,30.4,4.516,4.2,116,15,6.4,0.00733,0.00854,58.8,57.1,15,1016,0,109.9,13.75,0.00,0.00
15min,AgWx,beryljct,423,08MAY2018:13:30:00,81.1,13.48,77.4,77.8,77.6,77.8,77.2,23,32,16,0.620,36.6,45.3,28.0,6.029,4.8,119,18,7.6,0.00748,0.00880,59.5,57.2,15,1021,0,107.5,13.75,0.00,0.00
15min,AgWx,beryljct,423,08MAY2018:13:45:00,81.5,13.49,78.1,79.3,78.2,79.3,77.7,19,24,15,0.791,32.4,38.5,27.0,3.157,3.9,139,20,5.8,0.00745,0.00868,60.2,57.3,15,1022,0,109.6,13.75,0.00,0.00
15min,AgWx,beryljct,423,08MAY2018:14:00:00,82.1,13.54,78.7,79.7,78.9,79.7,78.5,21,27,15,0.675,35.1,41.8,27.8,0.482,4.4,141,25,7.6,0.00751,0.00882,60.9,57.5,15,1017,0,107.9,13.75,0.00,0.00
15min,AgWx,beryljct,423,08MAY2018:14:15:00,82.9,13.47,79.5,79.7,79.7,80.3,79.4,19,25,13,0.561,33.3,40.3,25.5,3.88,3.9,137,18,7.1,0.00745,0.00869,61.6,57.7,15,1010,0,109.9,13.75,0.00,0.00
15min,AgWx,beryljct,423,08MAY2018:14:30:00,83.5,13.44,79.8,80.3,80.0,80.6,79.5,18,25,12,0.597,32.8,41.5,22.0,4.691,4.4,116,23,7.2,0.00744,0.00877,62.3,57.9,15,997,0,107.4,13.75,0.00,0.00
15min,AgWx,beryljct,423,08MAY2018:14:45:00,84.2,13.4,80.4,80.7,80.5,80.9,80.1,16,24,12,0.585,30.7,41.1,24.1,3.858,3.0,130,24,6.3,0.00716,0.00826,63.1,58.1,15,981,0,110.5,13.75,0.00,0.00
15min,AgWx,beryljct,423,08MAY2018:15:00:00,85.2,13.4,80.9,81.2,81.1,81.5,80.7,15,23,12,0.555,29.7,39.7,23.4,4.012,2.8,132,27,4.7,0.00700,0.00803,63.8,58.3,16,961,0,111.2,13.75,0.00,0.00
15min,AgWx,beryljct,423,08MAY2018:15:15:00,86.0,13.32,81.1,81.6,81.3,81.7,80.9,16,24,11,0.469,30.7,41.2,22.2,4.538,3.2,114,21,7.3,0.00689,0.00799,64.4,58.6,16,937,0,108.9,13.75,0.00,0.00
15min,AgWx,beryljct,423,08MAY2018:15:30:00,86.7,13.32,81.7,82.3,81.9,82.6,81.4,14,26,10,0.887,28.1,43.8,20.1,4.889,2.1,113,23,6.8,0.00651,0.00738,64.9,58.8,15,909,0,109.5,13.75,0.00,0.00
15min,AgWx,beryljct,423,08MAY2018:15:45:00,87.3,13.3,81.6,82.0,81.8,82.3,81.6,17,27,12,0.614,33.1,44.4,24.4,4.867,4.2,108,18,5.9,0.00665,0.00792,65.3,59.1,15,878,0,105.1,13.75,0.00,0.00
15min,AgWx,beryljct,423,08MAY2018:16:00:00,87.3,13.32,81.6,81.8,81.8,82.4,81.5,18,27,10,0.429,34.4,44.1,20.7,6.292,5.7,119,15,10.4,0.00664,0.00815,65.5,59.3,15,843,0,100.0,13.75,0.00,0.00
15min,AgWx,beryljct,423,08MAY2018:16:15:00,87.1,13.31,81.8,81.8,81.9,82.3,81.6,18,26,9.8,0.790,33.6,43.9,19.7,6.094,6.5,105,23,9.6,0.00632,0.00797,65.6,59.6,16,779,0,96.7,13.75,0.00,0.00
15min,AgWx,beryljct,423,08MAY2018:16:30:00,87.2,13.28,82.2,82.4,82.3,82.9,81.8,17,25,10,0.525,32.2,43.0,21.4,3.595,4.3,120,19,8.6,0.00572,0.00698,65.7,59.8,15,744,0,96.7,13.75,0.00,0.00
15min,AgWx,beryljct,423,08MAY2018:16:45:00,87.6,13.34,82.2,82.6,82.4,82.7,82.0,16,24,11,0.419,31.4,42.1,21.9,0.57,4.3,103,16,7.7,0.00565,0.00691,65.8,60.0,15,732,0,97.2,13.75,0.00,0.00
15min,AgWx,beryljct,423,08MAY2018:17:00:00,88.0,13.31,82.1,82.4,82.3,82.8,81.6,21,29,13,0.558,37.6,46.7,26.9,4.976,3.1,79,24,6.1,0.00434,0.00522,65.9,60.2,15,590,0,97.0,13.75,0.00,0.00
15min,AgWx,beryljct,423,08MAY2018:17:15:00,88.1,13.26,82.4,83.0,82.5,83.1,82.0,18,28,12,0.661,34.4,46.2,25.5,1.469,3.6,96,11,8.1,0.00478,0.00583,66.2,60.5,16,634,0,95.3,13.75,0.00,0.00
15min,AgWx,beryljct,423,08MAY2018:17:30:00,88.5,13.28,82.6,82.3,82.8,83.1,82.0,18,28,11,0.533,34.0,45.9,23.5,2.696,3.0,72,12,4.4,0.00373,0.00459,66.4,60.6,16,507,0,94.8,13.75,0.00,0.00
15min,AgWx,beryljct,423,08MAY2018:17:45:00,87.4,13.33,81.7,81.6,81.9,82.6,81.2,20,34,11,0.890,36.4,50.5,22.5,4.012,4.3,103,14,7.8,0.00327,0.00431,66.7,60.8,16,417,0,88.7,13.75,0.00,0.00
15min,AgWx,beryljct,423,08MAY2018:18:00:00,86.8,13.3,81.3,81.3,81.4,81.9,80.4,24,32,17,0.701,41.1,48.5,33.4,9.84,7.1,127,10,10.0,0.00458,0.00610,67.0,61.0,15,528,0,88.6,13.76,0.00,0.00
15min,AgWx,beryljct,423,08MAY2018:18:15:00,85.4,13.35,79.6,78.2,79.8,81.4,78.2,21,25,16,0.719,36.5,41.1,30.1,9.23,8.9,147,7.9,12.5,0.00319,0.00492,67.3,61.2,15,275,0,82.4,13.76,0.00,0.00
15min,AgWx,beryljct,423,08MAY2018:18:30:00,83.7,13.39,81.9,82.7,81.6,83.1,78.3,14,21,12,0.559,28.4,35.6,23.5,9.56,11.3,181,11,15.4,0.00439,0.00673,67.6,61.3,16,366,0,83.5,13.76,0.00,0.00
15min,AgWx,beryljct,423,08MAY2018:18:45:00,84.0,13.39,82.6,81.7,82.8,83.4,81.7,14,19,11,0.630,29.1,36.0,23.9,7.98,10.0,182,17,14.5,0.00430,0.00647,67.8,61.5,16,377,0,85.5,13.76,0.00,0.00
15min,AgWx,beryljct,423,08MAY2018:19:00:00,83.8,13.33,81.4,81.7,81.5,82.3,80.6,16,21,13,0.524,30.7,37.1,25.8,8.44,8.7,198,20,13.3,0.00336,0.00521,67.9,61.7,15,290,0,82.1,13.76,0.00,0.00
15min,AgWx,beryljct,423,08MAY2018:19:15:00,83.3,13.25,81.6,81.6,81.6,82.3,81.0,15,19,12,0.454,28.7,34.4,24.6,12.56,9.4,187,9.9,13.9,0.00316,0.00512,68.0,61.8,16,235,0,80.9,13.76,0.00,0.00
15min,AgWx,beryljct,423,08MAY2018:19:30:00,82.8,13.22,80.9,80.4,81.1,81.9,80.0,14,17,12,0.467,26.9,30.9,24.2,11.49,10.3,195,8.1,15.2,0.00301,0.00512,68.0,62.0,16,182,0,79.8,13.76,0.00,0.00
15min,AgWx,beryljct,423,08MAY2018:19:45:00,81.8,13.2,79.5,79.4,79.7,80.7,79.2,14,15,12,0.456,26.2,28.7,23.2,10.41,10.3,204,6.2,13.5,0.00168,0.00220,68.0,62.1,16,105,0,77.8,13.77,0.00,0.00
15min,AgWx,beryljct,423,08MAY2018:20:00:00,80.2,13.2,78.0,77.5,78.3,79.4,77.4,14,15,13,0.449,25.3,27.4,23.0,10.24,9.9,213,7.8,12.7,0.00147,0.00195,68.0,62.2,16,53,0,75.9,13.77,0.00,0.00
15min,AgWx,beryljct,423,08MAY2018:20:15:00,78.7,13.16,76.4,75.5,76.7,77.6,75.5,15,16,13,0.479,25.2,27.3,22.9,8.46,9.7,219,6.8,13.3,0.00133,0.00177,67.9,62.4,16,24,0,74.4,13.77,0.00,0.00
15min,AgWx,beryljct,423,08MAY2018:20:30:00,76.9,13.16,75.6,76.1,75.5,76.1,75.0,15,16,13,0.422,24.2,26.6,21.7,11.11,10.1,222,7.2,13.6,0.00129,0.00170,67.7,62.5,16,7,0,73.3,13.77,0.00,0.00
15min,AgWx,beryljct,423,08MAY2018:20:45:00,76.0,13.15,75.7,75.2,75.7,76.1,75.0,14,15,13,0.434,23.2,24.6,21.6,9.49,10.4,223,6.3,13.4,0.00133,0.00176,67.5,62.6,16,2,0,73.3,13.77,0.00,0.00
15min,AgWx,beryljct,423,08MAY2018:21:00:00,74.8,13.13,73.4,72.5,73.7,75.1,72.5,16,17,14,0.463,24.1,25.3,22.5,7.3,8.4,216,6.0,10.8,0.00106,0.00144,67.3,62.6,16,0,0,70.9,13.77,0.00,0.00
15min,AgWx,beryljct,423,08MAY2018:21:15:00,73.3,13.13,71.5,71.3,71.7,72.4,71.2,17,18,16,0.445,24.7,25.9,23.5,8.31,7.4,212,4.6,8.5,0.00089,0.00123,67.1,62.7,16,0,0,68.4,13.77,0.00,0.00
15min,AgWx,beryljct,423,08MAY2018:21:30:00,72.2,13.12,72.0,72.5,71.8,72.6,71.1,17,18,15,0.443,24.4,25.9,22.8,9.93,8.3,222,5.3,11.2,0.00098,0.00133,66.9,62.8,16,0,0,69.0,13.77,0.00,0.00
15min,AgWx,beryljct,423,08MAY2018:21:45:00,71.7,13.1,72.1,71.4,72.1,72.5,71.2,16,18,15,0.442,24.1,25.7,22.3,6.905,8.5,219,6.8,11.5,0.00102,0.00138,66.7,62.8,16,0,0,69.5,13.77,0.00,0.00
15min,AgWx,beryljct,423,08MAY2018:22:00:00,70.9,13.1,68.5,65.2,69.2,71.4,65.2,18,20,16,0.427,24.3,26.4,22.9,5.437,6.2,196,16,9.8,0.00070,0.00099,66.4,62.9,16,0,0,66.4,13.77,0.00,0.00
15min,AgWx,beryljct,423,08MAY2018:22:15:00,68.8,13.08,64.8,64.8,64.8,65.2,64.0,21,23,20,0.451,23.8,25.3,22.5,4.889,6.3,171,6.5,8.5,0.00063,0.00088,66.2,62.9,16,0,0,62.3,13.77,0.00,0.00
15min,AgWx,beryljct,423,08MAY2018:22:30:00,67.0,13.08,64.6,65.2,64.4,65.5,62.7,22,25,19,0.429,24.3,26.7,22.6,8.24,6.9,178,9.1,11.3,0.00067,0.00091,66.0,62.9,16,0,0,62.1,13.77,0.00,0.00
15min,AgWx,beryljct,423,08MAY2018:22:45:00,66.5,13.07,67.8,66.3,67.4,68.4,65.3,18,21,16,0.399,22.1,24.0,20.8,8.64,9.0,169,5.4,10.8,0.00095,0.00125,65.7,62.9,16,0,0,65.5,13.77,0.00,0.00
15min,AgWx,beryljct,423,08MAY2018:23:00:00,65.9,13.06,63.4,61.7,63.9,67.3,61.5,21,24,17,0.429,23.1,25.6,21.1,6.971,7.4,173,6.9,9.7,0.00072,0.00097,65.5,62.9,16,0,0,62.1,13.78,0.00,0.00
15min,AgWx,beryljct,423,08MAY2018:23:15:00,64.5,13.06,61.1,60.6,61.1,61.9,60.4,23,25,21,0.407,22.8,24.4,21.8,8.13,7.2,173,5.9,8.8,0.00064,0.00086,65.2,62.9,16,0,0,59.4,13.78,0.00,0.00
15min,AgWx,beryljct,423,08MAY2018:23:30:00,63.2,13.05,60.5,61.3,60.3,61.5,59.7,23,26,22,0.412,22.8,24.5,21.3,6.993,7.0,178,6.5,8.1,0.00061,0.00082,64.9,62.9,16,0,0,58.7,13.78,0.00,0.00
15min,AgWx,beryljct,423,08MAY2018:23:45:00,62.2,13.03,60.7,60.9,60.6,61.5,59.1,26,30,22,0.465,25.5,28.0,22.3,6.555,7.4,170,4.7,9.2,0.00062,0.00083,64.7,62.9,16,0,0,58.9,13.78,0.00,0.00
15min,AgWx,beryljct,423,09MAY2018:00:00:00,61.2,13.03,57.5,56.6,57.9,60.8,55.3,28,37,25,0.468,24.7,29.5,22.2,1.03,4.6,188,42,6.9,0.00033,0.00049,64.4,62.9,16,0,0,56.1,13.78,0.00,0.00
15min,AgWx,beryljct,423,09MAY2018:00:15:00,59.9,13.02,61.8,64.5,60.7,64.5,56.6,22,29,17,0.353,21.4,25.2,18.6,1.359,0.4,304,3.1,1.8,-0.00036,-0.00054,64.2,62.8,16,0,0,53.9,13.78,0.00,0.00
15min,AgWx,beryljct,423,09MAY2018:00:30:00,59.2,13,60.2,59.5,60.6,64.7,57.4,26,36,17,0.451,24.7,31.1,18.4,0.658,1.2,211,42,3.8,-0.00017,-0.00021,63.9,62.8,16,0,0,55.1,13.78,0.00,0.00
15min,AgWx,beryljct,423,09MAY2018:00:45:00,58.3,13,57.5,55.9,57.7,60.4,55.9,32,40,23,0.528,28.1,32.4,22.6,2.433,1.0,198,12,4.1,-0.00021,-0.00028,63.6,62.8,16,0,0,53.2,13.78,0.00,0.00
15min,AgWx,bigpiney,439,08MAY2018:01:00:00,44.8,12.79,36.4,36.5,38.3,39.1,36.5,70,74,67,0.538,29.3,30.6,28.6,4.626,3.3,302,21,6.1,-0.00004,-0.00004,53.1,48.5,54,0,0,0.0,.,0.00,0.00
15min,AgWx,bigpiney,439,08MAY2018:01:15:00,44.0,12.77,39.0,38.5,37.1,38.5,36.3,73,76,70,0.572,29.1,30.6,28.3,1.052,3.3,294,25,5.0,-0.00005,-0.00005,52.7,48.5,54,0,0,0.0,.,0.00,0.00
15min,AgWx,bigpiney,439,08MAY2018:01:30:00,43.2,12.76,38.1,36.9,37.4,38.5,36.7,76,78,72,0.563,30.4,31.3,29.5,1.798,2.6,297,87,5.3,-0.00009,-0.00011,52.4,48.4,54,0,0,0.0,.,0.00,0.00
15min,AgWx,bigpiney,439,08MAY2018:01:45:00,42.7,12.76,37.2,36.8,37.2,38.1,36.2,73,77,71,0.548,29.5,29.9,29.1,2.346,2.7,48,75,3.9,-0.00008,-0.00009,52.2,48.4,54,0,0,0.0,.,0.00,0.00
15min,AgWx,bigpiney,439,08MAY2018:02:00:00,42.0,12.75,34.8,34.6,36.3,37.3,34.6,77,81,74,0.552,29.9,30.6,29.3,5.568,3.4,213,7.1,5.6,-0.00007,-0.00007,51.9,48.3,54,0,0,0.0,.,0.00,0.00
15min,AgWx,bigpiney,439,08MAY2018:02:15:00,41.4,12.74,37.1,36.3,35.5,36.4,34.6,80,82,77,0.574,30.0,30.7,29.4,5.48,4.9,231,5.5,6.1,-0.00003,-0.00003,51.6,48.2,54,0,0,0.0,.,0.00,0.00
15min,AgWx,bigpiney,439,08MAY2018:02:30:00,41.1,12.73,37.0,37.1,37.3,37.8,36.4,75,79,73,0.562,30.1,30.7,29.6,4.034,5.2,236,8.6,6.3,-0.00000,0.00001,51.3,48.2,54,0,0,0.0,.,0.00,0.00
15min,AgWx,bigpiney,439,08MAY2018:02:45:00,40.8,12.71,36.3,35.4,35.5,37.1,34.1,77,81,74,0.550,29.2,30.0,28.4,3.354,4.2,230,12,5.7,-0.00004,-0.00003,51.0,48.1,54,0,0,0.0,.,0.00,0.00
15min,AgWx,bigpiney,439,08MAY2018:03:00:00,40.5,12.7,35.7,35.1,35.7,38.1,34.7,77,80,70,0.538,29.1,29.8,28.7,6.204,4.8,236,11,6.7,-0.00002,-0.00001,50.7,48.1,54,0,0,0.0,.,0.00,0.00
15min,AgWx,bigpiney,439,08MAY2018:03:15:00,40.2,12.68,36.1,35.6,35.6,36.0,35.1,76,78,74,0.533,28.6,29.1,28.3,6.642,6.6,238,5.4,8.0,0.00002,0.00004,50.4,48.0,54,0,0,0.0,.,0.00,0.00
15min,AgWx,bigpiney,439,08MAY2018:03:30:00,40.0,12.68,34.5,34.6,35.8,36.9,34.6,74,76,71,0.509,28.2,28.9,27.5,5.217,6.7,232,8.0,8.2,0.00004,0.00006,50.1,48.0,54,0,0,0.0,.,0.00,0.00
15min,AgWx,bigpiney,439,08MAY2018:03:45:00,39.8,12.67,38.5,36.5,34.2,36.5,33.2,77,79,75,0.545,27.8,29.2,27.3,9.01,7.0,227,7.8,9.0,0.00002,0.00004,49.9,47.9,54,0,0,0.0,.,0.00,0.00
15min,AgWx,bigpiney,439,08MAY2018:04:00:00,39.6,12.65,36.2,36.2,36.3,37.9,35.2,71,74,66,0.509,27.7,29.1,26.7,3.157,4.1,256,44,9.8,-0.00001,0.00000,49.6,47.9,54,0,0,0.0,.,0.00,0.00
15min,AgWx,bigpiney,439,08MAY2018:04:15:00,39.3,12.64,33.5,32.8,33.4,36.1,32.3,74,77,69,0.484,26.1,27.5,25.7,2.696,4.1,314,14,6.4,-0.00003,-0.00002,49.3,47.8,54,0,0,0.0,.,0.00,0.00
15min,AgWx,bigpiney,439,08MAY2018:04:30:00,38.7,12.64,32.3,31.9,32.3,33.1,31.7,77,79,76,0.469,26.0,26.4,25.5,1.293,2.8,309,19,4.0,-0.00008,-0.00009,49.0,47.7,54,0,0,0.0,.,0.00,0.00
15min,AgWx,bigpiney,439,08MAY2018:04:45:00,38.0,12.62,33.1,33.1,33.1,35.1,31.8,74,78,69,0.492,25.8,26.7,25.2,3.025,1.1,333,60,3.8,-0.00016,-0.00021,48.8,47.6,54,0,0,0.0,.,0.00,0.00
15min,AgWx,bigpiney,439,08MAY2018:05:00:00,37.5,12.61,32.9,33.0,33.4,34.3,32.8,76,79,73,0.499,26.7,27.2,26.3,3.99,3.3,246,14,4.5,-0.00006,-0.00006,48.5,47.6,54,0,0,0.0,.,0.00,0.00
15min,AgWx,bigpiney,439,08MAY2018:05:15:00,37.1,12.61,32.4,32.3,32.4,33.3,31.9,81,84,79,0.497,27.2,27.8,26.7,6.029,5.0,233,8.9,6.6,-0.00003,-0.00003,48.3,47.5,54,0,0,0.0,.,0.00,0.00
15min,AgWx,bigpiney,439,08MAY2018:05:30:00,36.8,12.6,33.6,33.8,32.7,33.9,31.9,79,81,75,0.496,26.8,27.3,26.5,3.42,4.8,234,9.7,7.1,-0.00003,-0.00002,48.0,47.5,54,0,0,0.0,.,0.00,0.00
15min,AgWx,bigpiney,439,08MAY2018:05:45:00,36.7,12.59,33.3,33.2,33.7,34.3,33.2,76,79,73,0.489,26.9,27.5,26.1,3.968,4.1,251,12,5.7,-0.00003,-0.00003,47.8,47.4,54,0,0,0.0,.,0.00,0.00
15min,AgWx,bigpiney,439,08MAY2018:06:00:00,36.6,12.59,32.6,32.7,32.8,33.2,32.5,79,81,76,0.490,27.0,27.5,26.3,10.13,4.1,238,21,10.1,-0.00004,-0.00004,47.5,47.3,54,1,0,0.0,.,0.00,0.00
15min,AgWx,bigpiney,439,08MAY2018:06:15:00,36.5,12.6,31.7,31.7,31.8,32.6,31.1,80,81,78,0.479,26.2,26.6,25.5,3.223,4.6,263,49,9.8,-0.00003,-0.00002,47.2,47.3,54,7,0,0.0,.,0.00,0.00
15min,AgWx,bigpiney,439,08MAY2018:06:30:00,36.3,12.61,33.0,32.7,32.3,32.7,31.5,77,80,76,0.479,25.9,26.5,25.4,4.735,3.9,245,30,5.8,-0.00013,-0.00004,47.0,47.2,54,33,0,0.0,.,0.00,0.00
15min,AgWx,bigpiney,439,08MAY2018:06:45:00,36.4,12.63,30.8,30.6,32.0,32.9,30.6,80,82,77,0.473,26.5,27.8,25.3,1.929,3.2,314,80,5.6,-0.00008,-0.00001,46.8,47.1,54,54,0,0.0,.,0.00,0.00
15min,AgWx,bigpiney,439,08MAY2018:07:00:00,36.6,12.65,33.3,32.6,31.5,32.6,30.6,82,84,80,0.500,26.7,27.8,25.8,1.644,2.7,43,10,4.0,0.00003,0.00009,46.5,47.1,54,88,0,0.0,.,0.00,0.00
15min,AgWx,bigpiney,439,08MAY2018:07:15:00,37.3,12.65,33.7,33.9,33.4,34.1,32.6,79,81,76,0.519,27.7,28.5,27.1,1.798,1.3,32,27,3.0,0.00018,0.00022,46.3,47.0,54,125,0,0.0,.,0.00,0.00
15min,AgWx,bigpiney,439,08MAY2018:07:30:00,38.4,12.67,36.1,36.1,34.4,36.2,33.4,77,79,71,0.512,27.9,28.8,26.9,3.858,2.5,1.9,13,3.9,0.00049,0.00059,46.1,46.9,54,193,0,0.0,.,0.00,0.00
15min,AgWx,bigpiney,439,08MAY2018:07:45:00,39.7,12.68,38.0,37.9,36.8,38.1,35.8,70,74,65,0.503,28.1,28.9,27.2,3.266,3.0,351,16,4.0,0.00076,0.00092,45.8,46.9,54,241,0,0.0,.,0.00,0.00
15min,AgWx,bigpiney,439,08MAY2018:08:00:00,41.3,12.71,40.2,39.8,38.7,39.8,37.8,65,67,64,0.535,28.0,29.2,26.8,1.184,1.5,26,22,2.9,0.00101,0.00115,45.6,46.7,54,292,0,0.0,.,0.00,0.00
15min,AgWx,bigpiney,439,08MAY2018:08:15:00,43.2,12.77,42.0,41.2,40.5,41.2,39.6,62,65,60,0.532,28.6,29.5,27.6,1.578,1.3,51,22,2.8,0.00130,0.00145,45.4,46.7,54,342,0,0.0,.,0.00,0.00
15min,AgWx,bigpiney,439,08MAY2018:08:30:00,45.1,12.92,41.7,41.6,41.6,42.1,41.2,61,65,58,0.560,29.4,31.2,28.0,1.381,2.5,78,17,3.9,0.00160,0.00183,45.2,46.6,54,394,0,0.0,.,0.00,0.00